Weather History for Truckee-Tahoe, CA

Change the Weather History Date:

Friday, May 18, 2012

  Actual Average Record
Temperature  
Mean Temperature 48 °F -  
Max Temperature 64 °F 64 °F 83 °F (1954)
Min Temperature 32 °F 30 °F 10 °F (1974)
Degree Days  
Heating Degree Days 17    
Moisture  
Dew Point 32 °F    
Average Humidity 70    
Maximum Humidity 100    
Minimum Humidity 16    
Precipitation  
Precipitation 0.02 in - - ()
Sea Level Pressure  
Sea Level Pressure 30.05 in    
Wind  
Wind Speed 3 mph (SW)    
Max Wind Speed 13 mph    
Max Gust Speed 18 mph    
Visibility 7 miles    
Events Fog , Rain    
Averages and records for this station are not official NWS values.
T = Trace of Precipitation, MM = Missing Value Source: NWS Daily Summary

Daily Weather History Graph

Daily Weather History Graph

Search for Another Location

Airport:

Trip Planner

Search our weather history database for the weather conditions in past years. The results will help you decide how hot, cold, wet, or windy it might be!

Date:

Astronomy

May. 18, 2012 Rise Set
Actual Time 5:43 AM PDT 8:10 PM PDT
Civil Twilight 5:13 AM PDT 8:41 PM PDT
Nautical Twilight 4:35 AM PDT 9:19 PM PDT
Astronomical Twilight 3:53 AM PDT 10:01 PM PDT
Moon 4:15 AM PDT (5/18) 6:24 PM PDT (5/18)
Length of Visible Light 15h 27m
Length of Day
14h 26m
Waning Crescent, 4% of the Moon is Illuminated
May 18
Waning Crescent
May 20
New
May 28
First Quarter
Jun 4
Full
Jun 11
Last Quarter

Hourly Weather History & Observations

Time (PDT) Temp. Windchill Dew Point Humidity Pressure Visibility Wind Dir Wind Speed Gust Speed Precip Events Conditions
12:15 AM 41.0 °F 38.0 °F 39.2 °F 93% 30.01 in 4.0 mi NW 4.6 mph - 0.02 in Rain Light Rain
12:35 AM 41.0 °F - 37.4 °F 87% 30.01 in 8.0 mi Calm Calm - 0.02 in Rain Light Rain
12:55 AM 41.0 °F - 37.4 °F 87% 30.01 in 10.0 mi Calm Calm - 0.02 in   Unknown
1:15 AM 41.0 °F - 39.2 °F 93% 30.01 in 10.0 mi Calm Calm - N/A   Unknown
1:35 AM 41.0 °F - 39.2 °F 93% 30.00 in 10.0 mi Calm Calm - N/A Rain Light Rain
1:55 AM 39.2 °F - 37.4 °F 93% 30.00 in 10.0 mi Calm Calm - N/A   Unknown
2:15 AM 39.2 °F - 37.4 °F 93% 30.00 in 10.0 mi Calm Calm - N/A   Unknown
2:35 AM 39.2 °F - 37.4 °F 93% 30.00 in 10.0 mi Calm Calm - N/A   Unknown
2:55 AM 37.4 °F 34.9 °F 35.6 °F 93% 30.00 in 3.0 mi South 3.5 mph - N/A   Mist
3:15 AM 37.4 °F - 35.6 °F 93% 30.01 in 0.5 mi Calm Calm - N/A Fog Fog
3:35 AM 35.6 °F - 35.6 °F 100% 30.01 in 0.2 mi Calm Calm - N/A Fog Fog
3:55 AM 33.8 °F - 33.8 °F 100% 30.02 in 0.2 mi Calm Calm - N/A Fog Fog
4:15 AM 33.8 °F - 32.0 °F 93% 30.02 in 0.5 mi Calm Calm - N/A Fog Fog
4:35 AM 33.8 °F - 33.8 °F 100% 30.02 in 0.2 mi Calm Calm - N/A Fog Fog
4:55 AM 32.0 °F - 32.0 °F 100% 30.02 in 0.2 mi Calm Calm - N/A Fog Fog
5:15 AM 32.0 °F - 32.0 °F 100% 30.02 in 0.2 mi Calm Calm - N/A Fog Fog
5:35 AM 32.0 °F - 32.0 °F 100% 30.03 in 0.2 mi Calm Calm - N/A Fog Fog
5:55 AM 32.0 °F - 32.0 °F 100% 30.03 in 0.2 mi Calm Calm - N/A Fog Fog
6:15 AM 32.0 °F 28.7 °F 32.0 °F 100% 30.04 in 0.2 mi East 3.5 mph - N/A Fog Fog
6:35 AM 32.0 °F - 32.0 °F 100% 30.05 in 0.2 mi Calm Calm - N/A Fog Fog
6:45 AM 32.0 °F - 32.0 °F 100% 30.05 in 0.2 mi Calm Calm - N/A Fog Fog
7:45 AM 35.6 °F - 35.6 °F 100% 30.07 in 0.2 mi Calm Calm - N/A Fog Fog
8:55 AM 39.2 °F 37.0 °F 39.2 °F 100% 30.07 in 3.0 mi East 3.5 mph - N/A   Overcast
9:55 AM 46.4 °F 45.2 °F 37.4 °F 71% 30.07 in 10.0 mi NNW 3.5 mph - N/A   Partly Cloudy
11:45 AM 55.4 °F - 32.0 °F 41% 30.07 in 10.0 mi NNE 8.1 mph - N/A   Partly Cloudy
12:45 PM 57.2 °F - 26.6 °F 31% 30.06 in 10.0 mi South 6.9 mph - N/A   Scattered Clouds
1:45 PM 59.0 °F - 23.0 °F 25% 30.06 in 10.0 mi NNW 8.1 mph - N/A   Partly Cloudy
2:45 PM 62.6 °F - 23.0 °F 22% 30.05 in 10.0 mi ENE 5.8 mph - N/A   Partly Cloudy
3:55 PM 64.4 °F - 21.2 °F 19% 30.04 in 10.0 mi NNW 8.1 mph 17.3 mph N/A   Scattered Clouds
4:55 PM 64.4 °F - 17.6 °F 16% 30.04 in 10.0 mi NNE 6.9 mph 18.4 mph N/A   Scattered Clouds
5:45 PM 62.6 °F - 15.8 °F 16% 30.04 in 10.0 mi NNW 8.1 mph - N/A   Scattered Clouds
5:55 PM 62.6 °F - 15.8 °F 16% 30.04 in 10.0 mi West 8.1 mph 16.1 mph N/A   Unknown
6:15 PM 62.6 °F - 17.6 °F 18% 30.04 in 10.0 mi NNW 9.2 mph - N/A   Unknown
6:35 PM 62.6 °F - 32.0 °F 32% 30.05 in 10.0 mi West 12.7 mph 16.1 mph N/A   Unknown
6:55 PM 59.0 °F - 35.6 °F 42% 30.05 in 10.0 mi West 12.7 mph - N/A   Unknown
7:15 PM 59.0 °F - 35.6 °F 42% 30.06 in 10.0 mi West 10.4 mph - N/A   Unknown
7:35 PM 57.2 °F - 35.6 °F 44% 30.07 in 10.0 mi West 8.1 mph - N/A   Unknown
7:55 PM 55.4 °F - 35.6 °F 47% 30.07 in 10.0 mi SW 5.8 mph - N/A   Unknown
8:15 PM 53.6 °F - 35.6 °F 51% 30.08 in 10.0 mi SW 3.5 mph - N/A   Unknown
8:35 PM 51.8 °F - 33.8 °F 50% 30.09 in 10.0 mi South 4.6 mph - N/A   Unknown
8:55 PM 50.0 °F - 33.8 °F 54% 30.10 in 10.0 mi SE 6.9 mph - N/A   Unknown
9:15 PM 46.4 °F 43.5 °F 35.6 °F 66% 30.10 in 10.0 mi SE 5.8 mph - N/A   Unknown
9:35 PM 44.6 °F 43.1 °F 35.6 °F 71% 30.11 in 10.0 mi SSE 3.5 mph - N/A   Unknown
9:55 PM 44.6 °F - 35.6 °F 71% 30.11 in 10.0 mi Calm Calm - N/A   Unknown
10:15 PM 39.2 °F 37.0 °F 32.0 °F 75% 30.11 in 10.0 mi South 3.5 mph - N/A   Unknown
10:35 PM 42.8 °F - 35.6 °F 76% 30.12 in 10.0 mi Calm Calm - N/A   Unknown
10:55 PM 41.0 °F - 33.8 °F 76% 30.12 in 10.0 mi Calm Calm - N/A   Unknown
11:15 PM 41.0 °F 39.0 °F 33.8 °F 76% 30.12 in 10.0 mi South 3.5 mph - N/A   Unknown
11:35 PM 37.4 °F 34.9 °F 32.0 °F 81% 30.12 in 10.0 mi SE 3.5 mph - N/A   Unknown
11:55 PM 37.4 °F 34.9 °F 32.0 °F 81% 30.12 in 10.0 mi SSE 3.5 mph - N/A   Unknown